Weather History for EHRD - April, 2013

Change the Weather History Date:

Saturday, April 27, 2013

  Actual Average Record
Temperature  
Mean Temperature 42 °F -  
Max Temperature 51 °F 61 °F 77 °F (2007)
Min Temperature 34 °F 45 °F 34 °F (2013)
Degree Days  
Heating Degree Days 22    
Moisture  
Dew Point 37 °F    
Average Humidity 80    
Maximum Humidity 100    
Minimum Humidity 53    
Precipitation  
Precipitation 0.00 in - - ()
Sea Level Pressure  
Sea Level Pressure 29.91 in    
Wind  
Wind Speed 5 mph ()    
Max Wind Speed 16 mph    
Max Gust Speed -    
Visibility 6.8 miles    
Events Fog    
Averages and records for this station are not official NWS values.
T = Trace of Precipitation, MM = Missing Value Source: Averaged Metar Reports

Daily Weather History Graph

Daily Weather History Graph

Search for Another Location

Airport or City:

Trip Planner

Search our weather history database for the weather conditions in past years. The results will help you decide how hot, cold, wet, or windy it might be!

Date:

Astronomy

Apr. 27, 2013 Rise Set
Actual Time 6:20 AM CEST 9:00 PM CEST
Civil Twilight 5:42 AM CEST 9:38 PM CEST
Nautical Twilight 4:53 AM CEST 10:27 PM CEST
Astronomical Twilight 3:54 AM CEST 11:27 PM CEST
Moon 11:26 PM CEST (4/27) 7:14 AM CEST (4/27)
Length of Visible Light 15h 56m
Length of Day
14h 40m
Waning Gibbous, 96% of the Moon is Illuminated
Apr 27
Waning Gibbous
May 2
Last Quarter
May 10
New
May 18
First Quarter
May 25
Full

Hourly Weather History & Observations

Time (CEST) Temp. Windchill Dew Point Humidity Pressure Visibility Wind Dir Wind Speed Gust Speed Precip Events Conditions
12:25 AM 37.4 °F 34.9 °F 37.4 °F 100% 29.86 in 6.2 mi West 3.5 mph - N/A   Unknown
12:55 AM 37.4 °F 34.9 °F 37.4 °F 100% 29.86 in 6.2 mi WNW 3.5 mph - N/A   Unknown
1:25 AM 37.4 °F - 37.4 °F 100% 29.86 in 6.2 mi Variable 2.3 mph - N/A   Unknown
1:55 AM 37.4 °F 33.8 °F 37.4 °F 100% 29.86 in 6.2 mi WNW 4.6 mph - N/A   Unknown
2:00 AM 37 °F - 36 °F 97% 29.87 in 9 mi WNW 4.5 mph - -   Partly Cloudy
2:25 AM 35.6 °F 32.8 °F 35.6 °F 100% 29.86 in 6.2 mi WNW 3.5 mph - N/A   Unknown
2:55 AM 37.4 °F - 37.4 °F 100% 29.86 in 6.2 mi Variable 1.2 mph - N/A   Unknown
3:25 AM 37.4 °F - 37.4 °F 100% 29.86 in 6.2 mi West 2.3 mph - N/A   Unknown
3:55 AM 35.6 °F - 35.6 °F 100% 29.86 in - Variable 1.2 mph - N/A   Partly Cloudy
4:25 AM 37.4 °F - 37.4 °F 100% 29.86 in 3.7 mi NW 1.2 mph - N/A   Scattered Clouds
4:55 AM 37.4 °F - 37.4 °F 100% 29.86 in 5.6 mi Variable 2.3 mph - N/A   Unknown
5:00 AM 37 °F - 37 °F 100% 29.86 in 6 mi North 2.2 mph - -   Mostly Cloudy
5:25 AM 37.4 °F - 35.6 °F 93% 29.86 in 6.2 mi Calm Calm - N/A   Unknown
5:55 AM 35.6 °F - 35.6 °F 100% 29.86 in 1.4 mi Variable 1.2 mph - N/A   Mist
6:25 AM 37.4 °F - 37.4 °F 100% 29.86 in 0.2 mi NNW 1.2 mph - N/A Fog Fog
6:55 AM 35.6 °F - 35.6 °F 100% 29.86 in 0.3 mi Variable 1.2 mph - N/A Fog Fog
7:25 AM 35.6 °F - 35.6 °F 100% 29.86 in - NNW 2.3 mph - N/A   Mist
7:55 AM 37.4 °F - 37.4 °F 100% 29.86 in 6.2 mi NNE 1.2 mph - N/A   Unknown
8:00 AM 38 °F - 38 °F 100% 29.88 in 7 mi NNE 2.2 mph - - Fog Fog
8:25 AM 39.2 °F - 39.2 °F 100% 29.86 in 6.2 mi Variable 1.2 mph - N/A   Unknown
8:55 AM 42.8 °F - 39.2 °F 87% 29.89 in 6.2 mi Variable 2.3 mph - N/A   Unknown
9:25 AM 42.8 °F 38.6 °F 37.4 °F 81% 29.89 in 6.2 mi NNE 6.9 mph - N/A   Scattered Clouds
9:55 AM 44.6 °F 40.2 °F 37.4 °F 76% 29.89 in 6.2 mi NNE 8.1 mph - N/A   Unknown
10:25 AM 46.4 °F 42.9 °F 37.4 °F 71% 29.89 in 6.2 mi North 6.9 mph - N/A   Partly Cloudy
10:55 AM 46.4 °F 42.9 °F 35.6 °F 66% 29.89 in 6.2 mi NNE 6.9 mph - N/A   Unknown
11:00 AM 47 °F - 37 °F 57% 29.91 in 19 mi North 6.7 mph - -   Scattered Clouds
11:25 AM 46.4 °F 42.9 °F 35.6 °F 66% 29.89 in 6.2 mi NNE 6.9 mph - N/A   Unknown
11:55 AM 48.2 °F - 35.6 °F 62% 29.89 in 6.2 mi NNE 8.1 mph - N/A   Unknown
12:25 PM 50.0 °F - 37.4 °F 62% 29.89 in 6.2 mi North 9.2 mph - N/A   Scattered Clouds
12:55 PM 48.2 °F - 37.4 °F 66% 29.92 in 6.2 mi North 6.9 mph - N/A   Mostly Cloudy
1:25 PM 50.0 °F - 37.4 °F 62% 29.92 in 6.2 mi North 8.1 mph - N/A   Scattered Clouds
1:55 PM 50.0 °F - 37.4 °F 62% 29.92 in 6.2 mi North 11.5 mph - N/A   Scattered Clouds
2:00 PM 50 °F - 38 °F 53% 29.93 in 17 mi North 11.2 mph - -   Partly Cloudy
2:25 PM 50.0 °F - 37.4 °F 62% 29.92 in 6.2 mi North 12.7 mph - N/A   Unknown
2:55 PM 50.0 °F - 37.4 °F 62% 29.92 in 6.2 mi North 12.7 mph - N/A   Partly Cloudy
3:25 PM 50.0 °F - 37.4 °F 62% 29.92 in 6.2 mi North 13.8 mph - N/A   Partly Cloudy
3:55 PM 50.0 °F - 37.4 °F 62% 29.92 in 6.2 mi NNW 15.0 mph - N/A   Unknown
4:25 PM 50.0 °F - 39.2 °F 66% 29.92 in 6.2 mi North 16.1 mph - N/A   Partly Cloudy
4:55 PM 48.2 °F - 37.4 °F 66% 29.92 in 6.2 mi North 16.1 mph - N/A   Unknown
5:00 PM 48 °F - 37 °F 56% 29.95 in 19 mi North 15.7 mph - -   Scattered Clouds
5:25 PM 48.2 °F - 37.4 °F 66% 29.95 in 6.2 mi North 15.0 mph - N/A   Unknown
5:55 PM 48.2 °F - 37.4 °F 66% 29.95 in 6.2 mi North 15.0 mph - N/A   Unknown
6:25 PM 48.2 °F - 37.4 °F 66% 29.95 in 6.2 mi North 13.8 mph - N/A   Unknown
6:55 PM 46.4 °F 40.7 °F 37.4 °F 71% 29.95 in 6.2 mi North 12.7 mph - N/A   Unknown
7:25 PM 46.4 °F 40.4 °F 37.4 °F 71% 29.95 in 6.2 mi North 13.8 mph - N/A   Unknown
7:55 PM 44.6 °F 38.4 °F 37.4 °F 76% 29.95 in 6.2 mi North 12.7 mph - N/A   Unknown
8:00 PM 45 °F - 37 °F 66% 29.97 in 19 mi North 13.4 mph - -   Partly Cloudy
8:25 PM 44.6 °F 38.8 °F 37.4 °F 76% 29.98 in 6.2 mi North 11.5 mph - N/A   Unknown
8:55 PM 42.8 °F 36.6 °F 37.4 °F 81% 29.98 in 6.2 mi North 11.5 mph - N/A   Unknown
9:25 PM 42.8 °F 36.6 °F 35.6 °F 76% 29.98 in 6.2 mi North 11.5 mph - N/A   Unknown
9:55 PM 41.0 °F 35.8 °F 35.6 °F 81% 30.01 in 6.2 mi North 8.1 mph - N/A   Unknown
10:25 PM 41.0 °F 35.8 °F 35.6 °F 81% 30.01 in 6.2 mi North 8.1 mph - N/A   Unknown
10:55 PM 41.0 °F 36.4 °F 35.6 °F 81% 30.01 in 6.2 mi North 6.9 mph - N/A   Unknown
11:00 PM 41 °F - 36 °F 76% 30.02 in 22 mi North 6.7 mph - -  
11:25 PM 39.2 °F 34.2 °F 35.6 °F 87% 30.01 in 6.2 mi North 6.9 mph - N/A   Unknown
11:55 PM 39.2 °F 35.9 °F 35.6 °F 87% 30.04 in 6.2 mi North 4.6 mph - N/A   Unknown